Fredericksburg, VA

4:40 PM EST on December 09, 2019 (GMT -0500)
Shannon

Weather History for KEZF - October, 2019

Change the Weather History Date:

Wednesday, October 23, 2019

  Actual Average (KNYG) Record (KNYG)
Temperature  
Mean Temperature 56 °F -  
Max Temperature 68 °F 62 °F 80 °F (2012)
Min Temperature 45 °F 44 °F 31 °F (1997)
Degree Days  
Heating Degree Days 8    
Growing Degree Days 6 (Base 50)    
Moisture  
Dew Point 49 °F    
Average Humidity 79    
Maximum Humidity 100    
Minimum Humidity 37    
Precipitation  
Precipitation 0.01 in - - ()
Sea Level Pressure  
Sea Level Pressure 30.06 in    
Wind  
Wind Speed 3 mph ()    
Max Wind Speed 12 mph    
Max Gust Speed -    
Visibility 7.7 miles    
Events Fog    
Averages and records for this station are not official NWS values.
T = Trace of Precipitation, MM = Missing Value Source: Averaged Metar Reports

Daily Weather History Graph

Daily Weather History Graph

Search for Another Location

Airport or City:

Astronomy

Oct. 23, 2019 Rise Set
Actual Time 7:26 AM EDT 6:21 PM EDT
Civil Twilight 6:59 AM EDT 6:48 PM EDT
Nautical Twilight 6:28 AM EDT 7:19 PM EDT
Astronomical Twilight 5:57 AM EDT 7:49 PM EDT
Moon 1:48 AM EDT (10/23) 4:04 PM EDT (10/23)
Length of Visible Light 11h 48m
Length of Day
10h 55m
Waning Crescent, 27% of the Moon is Illuminated
Oct 23
Waning Crescent
Oct 27
New
Nov 4
First Quarter
Nov 12
Full
Nov 19
Last Quarter

Hourly Weather History & Observations

Time (EDT) Temp. Dew Point Humidity Pressure Visibility Wind Dir Wind Speed Gust Speed Precip Events Conditions
12:15 AM 56.5 °F 56.5 °F 100% 29.87 in 0.5 mi West 4.6 mph - N/A Fog Fog
12:35 AM 56.3 °F 56.3 °F 100% 29.87 in 0.5 mi West 5.8 mph - N/A Fog Fog
12:55 AM 56.3 °F 56.3 °F 100% 29.87 in 0.5 mi Calm Calm - N/A Fog Fog
1:35 AM 55.9 °F 55.9 °F 100% 29.88 in 0.8 mi West 3.5 mph - N/A   Overcast
1:55 AM 55.9 °F 55.9 °F 100% 29.88 in 0.5 mi Calm Calm - N/A Fog Fog
2:15 AM 55.6 °F 55.6 °F 100% 29.88 in 1.0 mi WSW 4.6 mph - N/A   Overcast
2:55 AM 55.4 °F 55.4 °F 100% 29.90 in 0.8 mi West 4.6 mph - N/A   Overcast
3:15 AM 55.4 °F 55.4 °F 100% 29.91 in 1.0 mi WSW 3.5 mph - N/A   Overcast
3:35 AM 55.0 °F 55.0 °F 100% 29.91 in 2.0 mi West 5.8 mph - N/A   Overcast
3:55 AM 54.9 °F 54.9 °F 100% 29.92 in 2.5 mi West 5.8 mph - N/A   Overcast
4:15 AM 54.5 °F 54.5 °F 100% 29.92 in 10.0 mi West 5.8 mph - N/A   Overcast
4:55 AM 53.8 °F 53.8 °F 100% 29.95 in 10.0 mi West 4.6 mph - N/A   Overcast
5:15 AM 53.6 °F 53.6 °F 100% 29.96 in 10.0 mi West 3.5 mph - N/A   Overcast
5:35 AM 53.6 °F 53.6 °F 100% 29.97 in 10.0 mi Calm Calm - N/A   Overcast
5:55 AM 52.9 °F 52.9 °F 100% 29.98 in 10.0 mi Calm Calm - N/A   Overcast
6:15 AM 52.7 °F 52.7 °F 100% 29.99 in 10.0 mi WSW 3.5 mph - N/A   Overcast
6:35 AM 52.2 °F 52.2 °F 100% 29.99 in 5.0 mi Calm Calm - N/A   Overcast
6:55 AM 51.3 °F 51.3 °F 100% 30.00 in 3.0 mi Calm Calm - N/A   Overcast
7:35 AM 51.1 °F 51.1 °F 100% 30.01 in 1.5 mi Calm Calm - N/A   Overcast
7:55 AM 51.1 °F 51.1 °F 100% 30.02 in 0.8 mi Calm Calm - N/A   Overcast
8:15 AM 50.9 °F 50.9 °F 100% 30.03 in 0.2 mi Calm Calm - N/A Fog Fog
8:35 AM 50.9 °F 50.9 °F 100% 30.04 in 0.2 mi Calm Calm - N/A Fog Fog
8:55 AM 51.6 °F 51.6 °F 100% 30.04 in 0.8 mi Calm Calm - N/A   Overcast
9:15 AM 53.6 °F 53.6 °F 100% 30.06 in 10.0 mi Calm Calm - N/A   Scattered Clouds
9:35 AM 56.1 °F 54.5 °F 94% 30.06 in 10.0 mi West 4.6 mph - N/A   Clear
9:55 AM 58.1 °F 53.8 °F 86% 30.07 in 10.0 mi Calm Calm - N/A   Clear
10:35 AM 61.0 °F 52.3 °F 73% 30.08 in 10.0 mi West 5.8 mph - N/A   Clear
10:55 AM 62.8 °F 52.9 °F 70% 30.08 in 10.0 mi WNW 5.8 mph - 0.01 in   Clear
11:15 AM 63.0 °F 49.8 °F 62% 30.08 in 10.0 mi WNW 6.9 mph - N/A   Clear
11:35 AM 64.4 °F 48.2 °F 56% 30.08 in 10.0 mi NW 11.5 mph - N/A   Clear
11:55 AM 64.9 °F 45.7 °F 50% 30.08 in 10.0 mi WNW 8.1 mph - N/A   Clear
12:15 PM 64.9 °F 44.8 °F 48% 30.08 in 10.0 mi West 6.9 mph - N/A   Clear
12:35 PM 65.3 °F 44.2 °F 46% 30.08 in 10.0 mi WNW 9.2 mph - N/A   Clear
12:55 PM 66.4 °F 45.0 °F 46% 30.07 in 10.0 mi WNW 3.5 mph - N/A   Clear
1:15 PM 66.7 °F 46.6 °F 48% 30.08 in 10.0 mi West 8.1 mph - N/A   Scattered Clouds
1:35 PM 66.6 °F 45.7 °F 47% 30.07 in 10.0 mi NW 4.6 mph - N/A   Scattered Clouds
1:55 PM 66.7 °F 45.1 °F 46% 30.06 in 10.0 mi West 5.8 mph - N/A   Clear
2:15 PM 67.6 °F 43.5 °F 42% 30.07 in 10.0 mi WNW 8.1 mph - N/A   Clear
2:35 PM 67.6 °F 44.1 °F 43% 30.07 in 10.0 mi NW 4.6 mph - N/A   Clear
2:55 PM 67.8 °F 42.3 °F 39% 30.07 in 10.0 mi WSW 8.1 mph - N/A   Clear
3:15 PM 67.6 °F 42.4 °F 40% 30.08 in 10.0 mi WSW 5.8 mph - N/A   Clear
3:35 PM 68.4 °F 42.6 °F 39% 30.08 in 10.0 mi Calm Calm - N/A   Clear
3:55 PM 68.4 °F 42.3 °F 39% 30.09 in 10.0 mi SW 6.9 mph - N/A   Clear
4:15 PM 68.4 °F 41.2 °F 37% 30.09 in 10.0 mi West 6.9 mph - N/A   Clear
4:35 PM 68.2 °F 41.9 °F 38% 30.09 in 10.0 mi SSW 8.1 mph - N/A   Clear
4:55 PM 68.0 °F 43.0 °F 40% 30.09 in 10.0 mi SSW 6.9 mph - N/A   Clear
5:15 PM 67.1 °F 43.7 °F 43% 30.10 in 10.0 mi SW 3.5 mph - N/A   Clear
5:35 PM 65.7 °F 44.4 °F 46% 30.11 in 10.0 mi Calm Calm - N/A   Clear
5:55 PM 64.2 °F 47.8 °F 55% 30.12 in 10.0 mi Calm Calm - N/A   Clear
6:15 PM 61.2 °F 50.0 °F 67% 30.12 in 10.0 mi Calm Calm - N/A   Clear
6:35 PM 56.3 °F 49.6 °F 78% 30.14 in 10.0 mi Calm Calm - N/A   Clear
7:35 PM 52.2 °F 48.6 °F 88% 30.16 in 10.0 mi Calm Calm - N/A   Clear
7:55 PM 52.5 °F 49.1 °F 88% 30.17 in 10.0 mi Calm Calm - N/A   Clear
8:15 PM 50.4 °F 48.7 °F 94% 30.18 in 10.0 mi Calm Calm - N/A   Clear
8:35 PM 49.5 °F 48.2 °F 95% 30.19 in 10.0 mi Calm Calm - N/A   Clear
8:55 PM 49.3 °F 48.6 °F 97% 30.19 in 10.0 mi Calm Calm - N/A   Clear
9:15 PM 48.2 °F 47.8 °F 99% 30.20 in 10.0 mi Calm Calm - N/A   Clear
9:35 PM 48.6 °F 48.0 °F 98% 30.21 in 10.0 mi Calm Calm - N/A   Clear
9:55 PM 48.0 °F 48.0 °F 100% 30.22 in 10.0 mi Calm Calm - N/A   Clear
10:35 PM 47.5 °F 47.5 °F 100% 30.22 in 10.0 mi Calm Calm - N/A   Clear
10:55 PM 47.1 °F 46.9 °F 99% 30.22 in 10.0 mi Calm Calm - N/A   Clear
11:15 PM 46.4 °F 46.4 °F 100% 30.22 in 10.0 mi Calm Calm - N/A   Clear
11:35 PM 45.9 °F 45.9 °F 100% 30.22 in 10.0 mi Calm Calm - N/A   Clear
11:55 PM 45.1 °F 45.1 °F 100% 30.22 in 10.0 mi Calm Calm - N/A   Clear